Location: Aghk�ilisa
(40.0189°N, 45.0097°E)
Time: 20:10:47
(UTC+00:00)

Cosmos 1908 - Pass Details

Date: 21 October 2019
Orbit: 511 x 532 km, 82.5° (Epoch: 12 November)

Event Time Altitude Azimuth Distance (km) Brightness Sun altitude
Rises 15:18:49 0° 197° (SSW) 2,659 7.1 -13.4°
Reaches altitude 10° 15:21:00 10° 202° (SSW) 1,772 6.2 -13.8°
Maximum altitude 15:24:49 53° 280° (W) 653 4.1 -14.5°
Drops below altitude 10° 15:28:38 10° 358° (N) 1,776 5.9 -15.3°
Sets 15:30:49 0° 3° (N) 2,666 6.8 -15.7°
